Temp
-11 -11 -11 -10 -10 -10 -10 -11 -12 -12 -12 -12 -13 -13 -13 -12 -12 -12 -12 -12 -11 -11 -11 -11 -10 -10 -10 -10 -10 -10 -10 -10 -10 -11 -11 -12 -12 -12 -12 -12 -12 -12 -12 -13 -14 -14 -13 -13 -13 -13 -12 -12 -12 -12
-12 -12 -12 -11 -11 -11 -12 -13 -13 -13 -13 -13 -13 -13 -13 -13 -13 -13 -12 -12 -12 -12 -11 -11 -11 -11 -11 -11 -11 -11 -11 -11 -12 -12 -13 -13 -13 -12 -12 -12 -12 -13 -13 -13 -14 -14 -14 -14 -14 -13 -13 -13 -13 -13
-12 -12 -12 -12 -13 -13 -14 -14 -14 -14 -14 -14 -14 -14 -14 -13 -13 -13 -13 -13 -13 -12 -12 -12 -12 -12 -12 -12 -12 -12 -12 -12 -12 -13 -13 -13 -13 -13 -13 -12 -13 -13 -13 -13 -14 -14 -15 -15 -15 -14 -14 -13 -13 -13
-13 -13 -13 -13 -13 -13 -14 -14 -14 -14 -14 -14 -14 -14 -14 -13 -13 -13 -13 -12 -12 -13 -13 -12 -13 -13 -13 -13 -13 -13 -13 -14 -14 -14 -14 -14 -14 -13 -13 -13 -13 -14 -14 -14 -14 -14 -15 -15 -14 -14 -14 -14 -14 -14
-13 -13 -13 -13 -13 -14 -14 -14 -14 -14 -14 -14 -14 -14 -14 -13 -13 -13 -13 -13 -13 -13 -13 -13 -13 -13 -14 -14 -14 -14 -15 -15 -15 -15 -15 -14 -14 -14 -13 -13 -14 -16 -15 -15 -14 -15 -15 -14 -15 -14 -14 -15 -15 -14
-14 -14 -14 -13 -13 -14 -14 -14 -14 -14 -13 -14 -14 -14 -14 -14 -14 -14 -14 -13 -14 -14 -14 -14 -14 -14 -15 -15 -15 -16 -16 -16 -16 -16 -16 -16 -16 -15 -14 -15 -16 -16 -15 -15 -15 -15 -15 -15 -15 -16 -15 -15 -15 -14
-14 -14 -14 -14 -14 -14 -14 -14 -14 -14 -14 -14 -14 -14 -14 -14 -14 -14 -14 -14 -14 -14 -15 -15 -16 -16 -16 -16 -17 -17 -17 -17 -16 -16 -17 -17 -17 -16 -15 -16 -16 -16 -15 -15 -15 -15 -15 -16 -15 -16 -15 -15 -15 -14
-14 -15 -15 -14 -14 -14 -14 -14 -14 -14 -14 -14 -14 -14 -15 -15 -15 -15 -15 -15 -15 -15 -16 -16 -17 -17 -17 -17 -17 -18 -17 -17 -17 -17 -17 -17 -17 -17 -16 -16 -16 -16 -16 -16 -15 -15 -15 -16 -16 -16 -15 -15 -15 -15
-15 -15 -16 -16 -15 -15 -15 -15 -15 -15 -15 -15 -15 -15 -15 -15 -15 -15 -15 -16 -16 -17 -17 -17 -18 -18 -18 -18 -18 -18 -18 -18 -18 -18 -17 -17 -17 -17 -17 -17 -16 -16 -16 -16 -16 -16 -16 -15 -16 -16 -16 -15 -15 -15
-15 -15 -16 -17 -16 -16 -15 -15 -15 -15 -15 -15 -16 -16 -15 -15 -15 -16 -16 -17 -17 -17 -17 -18 -18 -18 -18 -18 -18 -18 -18 -18 -18 -18 -18 -18 -18 -17 -17 -17 -17 -17 -17 -16 -16 -17 -16 -16 -15 -16 -16 -16 -15 -15
-15 -15 -16 -17 -18 -16 -17 -16 -16 -16 -16 -16 -16 -15 -16 -16 -17 -17 -17 -17 -18 -18 -18 -18 -18 -18 -18 -18 -18 -18 -18 -18 -18 -18 -18 -18 -18 -17 -17 -17 -17 -17 -17 -17 -17 -16 -16 -16 -16 -15 -15 -16 -16 -15
-15 -16 -16 -16 -16 -16 -16 -16 -16 -16 -16 -16 -16 -16 -16 -17 -17 -17 -17 -18 -18 -18 -18 -19 -19 -19 -19 -19 -19 -18 -19 -19 -19 -19 -18 -18 -18 -18 -17 -17 -17 -17 -17 -17 -17 -16 -16 -15 -15 -15 -15 -16 -16 -16
-15 -16 -16 -16 -17 -16 -16 -17 -17 -16 -16 -16 -16 -17 -17 -17 -17 -17 -17 -18 -18 -18 -19 -19 -19 -19 -19 -19 -19 -19 -19 -19 -19 -19 -19 -18 -18 -18 -17 -17 -17 -17 -17 -16 -16 -16 -15 -15 -16 -16 -16 -16 -17 -16
-16 -16 -16 -16 -16 -16 -17 -17 -16 -16 -16 -17 -17 -17 -17 -18 -17 -18 -18 -18 -18 -19 -19 -19 -19 -19 -19 -19 -20 -20 -20 -20 -20 -20 -20 -19 -19 -19 -18 -17 -17 -17 -17 -16 -16 -16 -15 -15 -15 -15 -15 -16 -16 -16
-15 -15 -15 -16 -16 -17 -17 -16 -16 -17 -17 -17 -17 -17 -18 -18 -18 -18 -18 -18 -18 -19 -19 -19 -19 -19 -20 -20 -20 -20 -20 -21 -20 -20 -20 -19 -19 -18 -18 -18 -17 -17 -17 -17 -16 -16 -15 -16 -15 -15 -16 -16 -16 -16
-16 -16 -16 -17 -17 -17 -17 -17 -17 -17 -17 -17 -17 -18 -18 -18 -18 -18 -18 -18 -19 -19 -19 -19 -19 -19 -19 -20 -20 -20 -20 -20 -20 -20 -19 -19 -19 -19 -18 -18 -17 -17 -17 -16 -16 -16 -16 -15 -16 -16 -16 -16 -16 -16
-16 -16 -17 -18 -17 -17 -17 -17 -17 -18 -17 -17 -18 -18 -18 -18 -18 -18 -18 -19 -19 -19 -19 -19 -19 -19 -19 -19 -20 -20 -20 -20 -20 -20 -19 -19 -19 -19 -18 -18 -18 -17 -17 -17 -16 -16 -16 -16 -16 -15 -15 -16 -16 -16
-16 -17 -17 -17 -17 -17 -17 -18 -18 -17 -17 -18 -18 -18 -18 -18 -18 -18 -19 -19 -19 -19 -19 -19 -19 -19 -19 -19 -20 -20 -20 -20 -20 -20 -19 -19 -19 -19 -19 -19 -18 -17 -17 -17 -16 -16 -16 -16 -16 -16 -15 -16 -16 -16
-17 -17 -18 -17 -17 -17 -18 -18 -18 -18 -18 -18 -18 -18 -18 -18 -18 -18 -19 -19 -19 -19 -19 -19 -19 -20 -20 -20 -20 -20 -20 -20 -20 -20 -19 -19 -19 -19 -19 -19 -18 -17 -17 -17 -17 -16 -16 -16 -16 -15 -16 -16 -16 -16
-18 -18 -17 -18 -18 -18 -18 -18 -18 -18 -18 -18 -18 -18 -18 -18 -18 -19 -18 -18 -18 -19 -19 -19 -19 -20 -20 -20 -20 -20 -20 -20 -20 -19 -19 -19 -19 -19 -19 -19 -18 -18 -18 -17 -17 -17 -17 -16 -16 -16 -16 -16 -16 -16
-17 -17 -18 -18 -18 -18 -18 -18 -18 -18 -18 -18 -18 -18 -18 -18 -19 -19 -19 -18 -19 -19 -19 -19 -19 -20 -20 -20 -20 -20 -20 -20 -20 -20 -19 -19 -19 -19 -19 -18 -18 -18 -18 -18 -17 -17 -17 -16 -16 -16 -16 -16 -16 -16
-18 -18 -18 -18 -18 -18 -18 -18 -18 -18 -18 -18 -18 -18 -18 -18 -19 -19 -18 -18 -18 -18 -19 -19 -19 -20 -20 -21 -20 -20 -20 -20 -20 -20 -20 -19 -19 -19 -18 -19 -19 -18 -18 -17 -17 -17 -17 -18 -17 -17 -16 -16 -16 -16
-17 -18 -18 -18 -18 -18 -18 -18 -18 -18 -18 -19 -19 -18 -18 -18 -18 -18 -18 -18 -18 -19 -19 -20 -20 -20 -21 -21 -21 -21 -20 -20 -20 -20 -20 -20 -20 -20 -19 -19 -19 -19 -18 -18 -18 -18 -18 -18 -18 -17 -17 -17 -17 -17
-18 -18 -18 -18 -18 -18 -18 -18 -18 -19 -18 -19 -19 -18 -18 -18 -18 -18 -18 -18 -19 -19 -20 -20 -20 -21 -21 -21 -21 -20 -20 -20 -20 -21 -21 -20 -20 -20 -20 -19 -19 -19 -19 -19 -18 -18 -18 -18 -18 -18 -18 -18 -18 -17
-18 -18 -18 -18 -18 -18 -18 -18 -18 -18 -18 -18 -18 -18 -18 -18 -19 -19 -19 -19 -19 -19 -20 -20 -20 -20 -20 -20 -20 -20 -20 -20 -20 -20 -20 -20 -20 -20 -20 -20 -20 -19 -19 -19 -19 -19 -19 -18 -18 -18 -18 -18 -18 -18
-17 -17 -17 -18 -18 -18 -18 -18 -18 -18 -18 -19 -18 -18 -18 -18 -18 -18 -19 -19 -19 -19 -19 -20 -19 -19 -19 -20 -20 -20 -21 -21 -21 -20 -20 -20 -20 -20 -20 -20 -20 -20 -20 -20 -20 -19 -19 -19 -19 -19 -19 -19 -19 -19
-17 -17 -18 -18 -18 -18 -18 -18 -18 -18 -18 -18 -18 -18 -18 -18 -18 -18 -19 -19 -19 -19 -20 -20 -20 -20 -20 -20 -20 -20 -20 -21 -21 -21 -20 -20 -20 -20 -20 -20 -20 -19 -20 -20 -20 -20 -20 -20 -20 -20 -20 -20 -20 -20
-17 -17 -18 -18 -18 -18 -18 -18 -18 -18 -18 -18 -18 -18 -18 -18 -18 -18 -18 -19 -19 -19 -19 -20 -19 -20 -20 -20 -20 -20 -20 -20 -20 -21 -20 -20 -20 -20 -20 -20 -19 -19 -19 -19 -19 -19 -19 -19 -20 -20 -20 -20 -20 -21
-17 -17 -17 -18 -18 -18 -17 -18 -18 -18 -18 -18 -18 -18 -18 -18 -18 -18 -18 -18 -18 -18 -19 -19 -19 -19 -19 -20 -20 -20 -20 -20 -20 -20 -20 -20 -20 -20 -20 -20 -20 -20 -19 -19 -19 -19 -19 -19 -19 -20 -20 -21 -22 -22
-17 -17 -17 -18 -18 -18 -17 -18 -18 -18 -18 -18 -18 -18 -18 -18 -18 -18 -18 -18 -18 -18 -18 -18 -19 -19 -19 -19 -19 -19 -19 -19 -20 -20 -20 -20 -19 -19 -19 -19 -19 -19 -19 -19 -19 -19 -20 -20 -20 -20 -20 -21 -22 -23
-17 -17 -17 -18 -18 -18 -18 -18 -18 -18 -18 -18 -18 -18 -17 -17 -17 -17 -17 -17 -18 -18 -17 -18 -18 -18 -19 -19 -19 -19 -19 -19 -19 -19 -19 -19 -19 -19 -19 -19 -19 -19 -19 -19 -19 -19 -19 -19 -20 -20 -20 -21 -21 -22
-17 -18 -18 -18 -17 -18 -18 -18 -18 -18 -18 -18 -18 -18 -17 -17 -17 -17 -17 -17 -17 -18 -17 -17 -18 -18 -18 -18 -18 -18 -18 -18 -18 -18 -19 -19 -19 -18 -18 -18 -18 -18 -19 -19 -19 -19 -19 -19 -19 -19 -19 -20 -21 -21
-17 -17 -17 -17 -17 -17 -17 -17 -18 -17 -17 -17 -17 -17 -17 -17 -17 -17 -17 -17 -17 -17 -17 -17 -17 -18 -18 -18 -18 -18 -18 -18 -18 -18 -19 -19 -18 -18 -18 -18 -18 -18 -19 -19 -19 -19 -19 -19 -19 -19 -20 -19 -19 -20
Height
5772 5771 5769 5767 5765 5763 5761 5759 5758 5758 5758 5758 5759 5760 5761 5762 5763 5764 5764 5764 5765 5765 5765 5764 5764 5763 5762 5761 5760 5759 5757 5754 5753 5751 5750 5750 5750 5749 5749 5748 5746 5746 5742 5744 5743 5741 5742 5749 5751 5748 5754 5758 5759 5767
5764 5763 5762 5760 5758 5755 5753 5751 5750 5750 5751 5752 5752 5753 5754 5755 5756 5756 5757 5757 5756 5756 5756 5755 5754 5753 5751 5749 5747 5745 5744 5742 5739 5737 5736 5735 5736 5735 5736 5736 5733 5733 5731 5731 5730 5730 5730 5732 5732 5733 5733 5737 5741 5747
5756 5755 5755 5753 5752 5749 5747 5746 5745 5745 5745 5746 5747 5748 5748 5749 5749 5750 5750 5750 5749 5747 5746 5745 5744 5742 5740 5737 5734 5733 5731 5728 5726 5725 5724 5724 5723 5723 5722 5722 5720 5718 5716 5717 5718 5720 5719 5720 5719 5718 5719 5720 5722 5730
5747 5747 5747 5746 5745 5744 5743 5742 5742 5741 5741 5741 5741 5741 5742 5741 5742 5742 5742 5741 5740 5739 5737 5734 5732 5730 5728 5726 5723 5720 5718 5717 5715 5714 5713 5712 5710 5710 5710 5708 5707 5705 5705 5705 5705 5704 5704 5705 5705 5707 5708 5708 5708 5711
5739 5739 5739 5739 5738 5738 5738 5737 5737 5737 5736 5736 5736 5736 5735 5735 5734 5734 5733 5731 5730 5730 5727 5723 5721 5719 5717 5714 5711 5708 5706 5705 5704 5703 5701 5700 5698 5698 5698 5698 5698 5694 5693 5690 5691 5691 5690 5692 5694 5694 5695 5696 5696 5699
5730 5730 5730 5731 5731 5731 5731 5731 5731 5731 5730 5730 5729 5729 5728 5728 5727 5725 5724 5721 5720 5718 5716 5714 5711 5708 5706 5703 5700 5698 5696 5694 5693 5693 5691 5690 5688 5688 5689 5689 5684 5681 5678 5678 5679 5678 5679 5681 5686 5686 5685 5686 5687 5688
5721 5722 5722 5722 5723 5724 5724 5724 5724 5723 5723 5723 5722 5722 5720 5719 5717 5716 5715 5713 5710 5708 5705 5703 5700 5697 5694 5692 5690 5689 5688 5686 5685 5684 5683 5682 5680 5678 5678 5679 5674 5672 5670 5668 5667 5667 5668 5668 5670 5672 5673 5674 5675 5677
5711 5713 5713 5713 5714 5716 5716 5717 5717 5716 5716 5716 5715 5714 5712 5711 5709 5708 5706 5704 5701 5699 5696 5694 5692 5690 5687 5685 5683 5681 5679 5677 5677 5675 5674 5673 5672 5669 5669 5669 5666 5663 5660 5658 5657 5656 5657 5659 5658 5660 5660 5662 5665 5667
5702 5703 5703 5705 5706 5707 5708 5709 5709 5709 5709 5708 5707 5706 5705 5704 5702 5700 5698 5696 5694 5694 5690 5688 5686 5684 5682 5679 5677 5675 5673 5671 5670 5667 5665 5665 5663 5661 5660 5659 5657 5654 5652 5650 5646 5646 5646 5648 5650 5650 5652 5654 5655 5656
5694 5694 5695 5696 5697 5698 5700 5701 5701 5701 5701 5700 5701 5700 5698 5696 5694 5694 5692 5691 5689 5687 5685 5683 5682 5679 5678 5674 5672 5670 5667 5665 5663 5662 5659 5657 5655 5654 5652 5650 5649 5647 5643 5640 5639 5637 5633 5634 5637 5641 5642 5644 5645 5646
5685 5685 5686 5687 5688 5690 5692 5693 5693 5694 5694 5694 5694 5693 5692 5691 5690 5689 5688 5687 5686 5684 5681 5679 5677 5674 5671 5668 5665 5662 5658 5656 5655 5655 5652 5651 5649 5647 5645 5643 5641 5639 5636 5632 5629 5628 5626 5624 5627 5628 5631 5632 5634 5635
5678 5677 5677 5678 5679 5682 5684 5684 5685 5687 5688 5688 5689 5688 5687 5687 5686 5686 5685 5684 5682 5680 5677 5675 5672 5669 5665 5662 5659 5655 5651 5648 5646 5645 5644 5644 5642 5641 5640 5638 5635 5632 5629 5626 5622 5620 5618 5617 5617 5618 5619 5620 5621 5623
5671 5670 5670 5671 5673 5675 5677 5679 5681 5683 5683 5683 5684 5684 5684 5684 5684 5683 5681 5680 5677 5675 5673 5670 5668 5665 5661 5658 5654 5649 5645 5643 5640 5638 5637 5637 5636 5634 5633 5631 5629 5626 5623 5621 5617 5614 5612 5610 5609 5607 5607 5607 5610 5614
5666 5666 5666 5667 5669 5671 5673 5676 5677 5678 5679 5679 5680 5681 5681 5680 5680 5679 5677 5675 5674 5671 5667 5666 5663 5661 5656 5652 5647 5642 5640 5636 5635 5633 5632 5630 5630 5629 5627 5626 5624 5623 5620 5617 5612 5608 5604 5600 5599 5597 5596 5599 5604 5607
5664 5663 5663 5664 5666 5668 5670 5672 5673 5674 5675 5676 5678 5678 5678 5677 5676 5674 5673 5670 5668 5666 5663 5661 5658 5655 5650 5646 5642 5637 5634 5631 5630 5628 5627 5627 5627 5625 5623 5622 5621 5619 5616 5614 5609 5603 5599 5595 5590 5588 5591 5595 5600 5603
5660 5660 5660 5661 5664 5666 5667 5669 5670 5671 5672 5674 5674 5675 5674 5673 5672 5671 5669 5667 5665 5663 5659 5655 5652 5648 5646 5642 5638 5634 5631 5628 5626 5624 5623 5623 5622 5621 5620 5618 5617 5616 5614 5612 5608 5603 5599 5594 5591 5591 5593 5596 5599 5601
5657 5657 5657 5659 5662 5664 5665 5666 5667 5669 5670 5671 5671 5671 5670 5669 5668 5666 5664 5662 5659 5657 5654 5650 5648 5645 5642 5638 5634 5631 5627 5625 5622 5620 5620 5619 5619 5618 5616 5615 5615 5615 5613 5611 5608 5604 5601 5598 5596 5597 5598 5600 5602 5604
5653 5654 5655 5657 5659 5661 5662 5664 5665 5667 5668 5668 5668 5667 5666 5665 5663 5661 5660 5657 5655 5652 5649 5646 5643 5640 5637 5634 5630 5626 5624 5621 5619 5618 5617 5616 5615 5615 5614 5613 5613 5613 5612 5610 5608 5606 5604 5603 5602 5602 5602 5603 5604 5604
5650 5652 5654 5656 5657 5659 5661 5662 5663 5664 5665 5664 5664 5664 5663 5661 5660 5657 5655 5653 5650 5645 5642 5639 5637 5634 5632 5629 5626 5622 5619 5617 5615 5614 5613 5613 5612 5612 5611 5610 5610 5610 5610 5610 5609 5607 5607 5605 5602 5603 5605 5605 5606 5608
5648 5650 5652 5654 5656 5658 5659 5661 5661 5661 5662 5663 5661 5660 5659 5658 5656 5654 5651 5648 5644 5641 5637 5635 5632 5630 5627 5624 5621 5618 5614 5612 5610 5609 5610 5609 5609 5609 5608 5608 5608 5609 5609 5608 5608 5609 5609 5608 5607 5605 5606 5607 5607 5609
5647 5650 5652 5654 5655 5656 5657 5658 5659 5660 5659 5659 5658 5657 5656 5654 5652 5649 5646 5643 5638 5634 5631 5630 5627 5624 5622 5618 5616 5613 5610 5607 5606 5605 5604 5605 5605 5605 5605 5605 5606 5606 5607 5607 5606 5607 5608 5610 5610 5610 5609 5610 5609 5609
5648 5649 5651 5652 5654 5655 5656 5656 5656 5656 5657 5657 5656 5655 5653 5650 5647 5644 5641 5637 5634 5629 5627 5625 5622 5620 5617 5614 5612 5610 5607 5605 5603 5601 5601 5600 5600 5601 5601 5601 5602 5603 5603 5604 5604 5605 5605 5607 5608 5610 5611 5612 5612 5611
5648 5650 5651 5652 5653 5653 5655 5655 5655 5656 5655 5653 5653 5652 5650 5646 5643 5640 5638 5634 5631 5628 5624 5622 5619 5615 5613 5611 5609 5607 5604 5602 5600 5598 5597 5597 5596 5596 5597 5598 5599 5599 5600 5600 5601 5602 5603 5604 5606 5607 5608 5609 5610 5612
5648 5650 5651 5652 5653 5654 5654 5654 5654 5654 5653 5652 5651 5650 5648 5645 5643 5639 5635 5632 5629 5625 5622 5619 5616 5613 5610 5608 5606 5604 5602 5600 5598 5596 5596 5595 5595 5594 5594 5594 5595 5596 5597 5597 5598 5598 5599 5600 5601 5602 5604 5605 5605 5606
5650 5651 5652 5653 5653 5654 5655 5655 5654 5653 5653 5652 5650 5648 5645 5643 5640 5637 5633 5630 5627 5623 5620 5617 5614 5612 5609 5607 5605 5603 5602 5600 5598 5596 5595 5594 5593 5593 5593 5594 5593 5593 5593 5593 5594 5594 5595 5595 5596 5596 5598 5598 5599 5600
5650 5651 5652 5653 5654 5654 5654 5654 5654 5653 5652 5652 5649 5647 5645 5643 5640 5637 5633 5629 5626 5623 5619 5617 5615 5612 5609 5607 5606 5605 5604 5602 5600 5597 5596 5594 5593 5593 5593 5592 5592 5592 5591 5591 5591 5591 5591 5590 5590 5589 5589 5590 5590 5592
5650 5651 5652 5653 5653 5654 5654 5654 5654 5653 5653 5651 5649 5648 5646 5642 5640 5637 5633 5629 5626 5623 5620 5618 5615 5613 5611 5610 5607 5606 5604 5603 5601 5600 5597 5596 5595 5594 5593 5592 5591 5591 5590 5589 5589 5588 5587 5587 5586 5585 5584 5583 5582 5582
5650 5650 5651 5652 5653 5653 5653 5653 5652 5653 5652 5652 5650 5647 5645 5642 5640 5637 5633 5631 5628 5625 5623 5621 5619 5616 5614 5613 5611 5609 5608 5607 5605 5603 5601 5600 5598 5597 5596 5594 5592 5591 5590 5588 5587 5586 5585 5584 5583 5581 5580 5577 5575 5573
5649 5650 5650 5650 5651 5651 5651 5652 5652 5651 5651 5650 5649 5647 5646 5643 5641 5639 5636 5633 5631 5628 5626 5624 5623 5620 5619 5617 5615 5613 5611 5610 5609 5608 5606 5605 5604 5603 5600 5598 5596 5594 5592 5590 5588 5586 5585 5583 5581 5579 5576 5570 5566 5562
5648 5648 5648 5649 5649 5649 5649 5650 5650 5650 5649 5649 5649 5648 5646 5644 5643 5641 5638 5636 5633 5632 5629 5628 5625 5623 5623 5622 5621 5619 5617 5615 5613 5613 5612 5611 5609 5607 5605 5602 5600 5599 5596 5593 5591 5589 5586 5584 5581 5579 5575 5568 5563 5560
5646 5646 5646 5646 5646 5646 5647 5648 5648 5647 5647 5647 5647 5647 5646 5645 5644 5642 5640 5638 5637 5635 5633 5631 5630 5628 5627 5626 5625 5624 5623 5621 5618 5617 5616 5615 5614 5612 5610 5607 5605 5603 5600 5598 5595 5593 5590 5586 5583 5579 5575 5571 5566 5562
5644 5644 5644 5643 5643 5643 5643 5644 5645 5645 5645 5645 5646 5646 5646 5645 5645 5643 5642 5641 5639 5637 5637 5635 5632 5631 5631 5630 5628 5626 5625 5624 5621 5620 5618 5618 5617 5614 5612 5610 5608 5606 5604 5601 5599 5597 5594 5591 5588 5584 5580 5576 5572 5569
5642 5643 5643 5643 5642 5642 5641 5641 5642 5642 5643 5644 5645 5645 5645 5645 5645 5644 5643 5642 5640 5638 5637 5636 5635 5633 5633 5631 5630 5628 5627 5625 5624 5622 5620 5620 5619 5617 5615 5612 5610 5608 5607 5604 5602 5600 5597 5595 5592 5589 5586 5584 5580 5577
Wind_Speed
26 26 27 28 29 30 29 29 27 26 23 22 23 23 22 24 27 30 31 30 30 31 30 30 31 31 32 33 35 36 37 40 42 43 42 42 41 41 42 42 44 44 47 43 43 45 48 47 52 57 56 59 63 65
27 27 26 26 27 26 25 22 22 22 19 19 19 20 22 23 22 26 28 26 27 29 30 30 32 33 35 36 37 39 40 41 38 36 38 40 42 42 42 43 44 45 47 47 48 45 42 43 46 52 54 56 58 60
28 27 25 24 23 21 18 16 15 15 17 18 21 23 22 23 21 23 26 27 27 29 32 33 33 34 37 37 38 40 40 38 37 36 36 38 39 40 41 42 43 43 45 47 46 43 40 38 42 45 47 48 51 50
28 27 27 25 23 20 16 15 16 17 18 18 19 20 21 21 26 30 29 30 30 31 32 34 33 34 37 39 40 41 39 36 35 35 36 36 37 38 39 42 43 42 40 40 43 43 42 42 42 44 44 47 51 50
29 28 27 25 23 21 19 17 18 19 18 20 22 23 24 24 26 27 29 31 32 31 31 36 37 37 38 38 37 36 36 35 34 33 33 33 34 36 38 38 35 32 35 41 40 39 41 40 40 42 43 41 44 47
30 27 27 27 25 23 23 21 20 21 21 21 22 25 25 26 27 29 30 32 30 33 33 35 37 36 35 35 34 31 31 32 31 29 28 26 28 30 32 25 22 32 38 39 38 40 41 41 37 37 38 39 41 41
31 27 26 26 25 25 24 23 22 22 22 23 25 25 26 27 27 29 29 30 32 33 33 33 32 30 30 29 28 28 28 28 28 28 26 27 27 27 26 19 24 28 31 35 36 36 37 37 37 38 39 39 40 38
30 29 28 26 26 26 25 23 23 23 22 23 24 25 27 26 26 28 28 29 29 28 27 26 25 25 26 26 26 27 28 28 28 28 27 26 27 29 28 24 24 26 28 31 35 35 31 27 30 28 33 39 37 38
27 30 28 25 24 23 24 24 24 23 22 24 25 24 24 24 24 25 24 22 21 20 19 18 17 19 20 22 23 24 24 25 26 27 27 26 25 27 28 25 24 26 27 27 32 34 34 30 26 25 25 27 32 34
29 29 24 26 29 27 23 24 24 23 26 23 22 20 19 20 20 19 17 15 15 15 16 16 18 18 18 20 22 23 23 24 23 22 23 23 24 23 23 24 24 25 27 27 27 31 38 38 33 31 31 29 31 31
22 25 26 30 30 28 24 27 29 26 21 18 17 17 16 15 14 12 13 13 14 16 17 19 20 20 22 24 25 26 27 27 28 25 26 23 23 24 22 22 22 22 23 27 25 24 28 34 36 33 31 33 32 31
24 25 23 24 23 24 26 22 17 16 15 15 14 13 11 9 10 11 12 13 15 17 18 16 17 18 19 23 25 27 25 24 25 24 24 21 22 21 21 21 21 21 15 18 19 18 21 22 25 31 32 32 31 32
26 21 17 13 14 18 17 13 13 12 12 12 11 8 7 9 9 10 12 14 15 18 18 18 17 18 22 25 27 23 25 23 22 19 13 15 15 17 19 19 19 15 16 18 21 22 22 24 29 31 31 28 26 26
14 13 10 10 12 12 11 10 11 10 10 9 7 7 9 9 10 11 14 16 17 18 21 21 21 27 27 28 27 27 26 21 17 11 14 14 13 14 14 15 16 16 17 21 20 20 22 19 22 25 20 17 19 19
14 11 9 11 10 9 9 10 9 8 8 7 6 7 9 10 11 13 14 17 18 16 17 21 22 26 24 29 29 26 24 17 15 19 18 14 14 14 13 12 10 11 14 19 19 22 18 17 21 8 10 14 16 17
12 11 9 11 10 9 10 8 8 8 8 7 8 9 9 11 12 14 16 16 14 20 25 25 24 26 25 27 27 25 21 18 16 14 15 14 15 13 12 8 9 12 11 10 11 15 14 20 8 3 8 11 13 17
11 12 11 10 9 10 9 8 8 8 8 7 9 10 9 11 14 15 15 16 18 23 24 21 22 24 24 25 25 23 20 17 16 14 12 10 13 13 12 9 8 9 9 12 13 13 10 10 10 4 5 6 9 12
12 12 11 9 10 9 9 9 9 8 7 7 9 7 10 13 15 16 17 17 20 27 25 24 22 22 24 23 21 20 18 14 19 14 10 11 12 11 11 9 8 5 5 7 8 10 10 7 5 2 5 8 9 6
11 12 9 10 10 9 9 9 9 8 6 8 8 8 11 14 15 17 14 15 22 22 20 20 21 20 22 23 22 20 18 16 17 16 12 12 12 10 11 11 10 6 6 6 7 6 7 7 4 7 6 4 7 5
13 9 10 10 8 8 9 10 10 9 8 8 9 11 13 16 17 18 16 19 19 19 20 20 21 21 21 20 20 21 18 16 15 17 17 13 13 12 12 12 12 10 7 11 8 4 3 6 7 5 4 8 8 10
10 10 9 7 7 8 9 10 10 9 10 9 10 12 15 16 15 15 15 23 29 26 23 19 16 22 21 18 18 19 17 15 13 14 15 15 16 16 16 15 13 14 13 9 9 10 8 5 1 3 5 4 4 2
10 8 7 6 5 5 6 6 7 8 9 9 10 12 13 14 16 16 16 20 22 14 13 17 17 24 18 15 16 15 13 11 11 12 13 12 12 14 17 17 15 14 14 14 13 12 10 7 6 5 7 7 6 6
9 8 6 5 5 4 4 3 3 4 8 10 8 9 9 14 16 14 16 17 17 17 16 17 18 16 14 13 15 13 12 14 13 12 10 9 8 9 13 16 17 16 15 15 15 16 16 15 12 11 11 12 11 11
9 8 8 6 5 3 2 1 3 4 5 6 7 10 10 14 19 16 14 13 12 14 13 12 13 13 13 13 11 11 11 10 9 7 7 7 6 4 6 10 12 14 16 17 18 18 19 19 18 18 17 17 17 17
8 7 7 7 4 2 1 0 4 3 6 7 11 13 12 12 15 14 12 12 13 13 10 10 12 9 8 8 8 7 7 8 9 8 6 4 3 3 4 5 5 4 7 11 15 18 20 22 24 24 23 22 22 23
6 7 8 7 5 4 3 1 1 2 7 10 9 8 10 17 21 16 14 13 12 12 11 10 10 12 12 11 9 8 7 8 9 8 6 6 5 3 2 2 2 4 5 7 8 10 11 14 18 21 25 27 27 28
8 9 8 6 5 5 5 3 4 2 3 6 6 12 7 13 19 18 14 15 14 15 14 11 12 13 12 13 16 16 14 12 12 14 15 15 12 9 7 5 4 3 3 4 6 8 10 11 13 15 17 18 19 20
9 8 7 7 5 5 5 5 3 2 4 5 7 9 15 16 16 14 15 15 16 17 16 16 16 17 18 16 16 17 19 19 17 17 17 17 17 16 14 14 15 14 12 10 8 7 6 7 9 11 13 16 19 21
7 7 7 6 6 7 7 5 5 4 6 4 7 10 11 16 13 14 15 15 15 15 16 15 16 18 18 16 16 17 18 20 20 19 18 18 17 15 14 15 15 14 14 15 15 15 14 12 10 11 15 21 21 20
6 8 8 6 7 7 7 6 5 5 7 7 5 5 8 9 9 11 12 13 13 13 15 15 16 17 15 15 15 16 16 18 18 16 15 16 18 19 19 21 21 19 19 21 20 19 16 14 13 13 18 22 14 15
4 6 7 9 9 8 7 7 7 7 10 6 3 4 5 7 8 9 9 10 10 9 12 13 13 12 11 13 12 12 13 14 15 16 16 16 16 17 17 18 19 18 19 20 22 23 22 22 22 23 24 25 25 18
7 7 7 6 5 9 10 10 8 9 10 4 3 1 3 5 6 7 7 7 8 8 8 9 11 10 9 8 9 10 11 12 13 14 14 14 14 15 15 16 17 16 17 19 19 19 21 22 23 26 28 28 26 26
3 2 5 5 2 2 1 5 7 10 8 5 4 3 2 2 4 5 5 6 7 8 9 10 10 9 8 8 8 9 9 10 11 12 13 12 13 13 13 14 14 14 14 15 15 16 18 19 21 22 23 24 25 27
Wind_Direction
281 288 293 300 301 298 296 286 277 275 270 270 268 267 267 269 268 269 265 262 263 263 265 269 271 273 276 278 280 282 283 283 284 281 277 273 269 268 268 268 271 273 274 275 273 272 273 269 261 261 260 253 247 242
281 285 290 297 302 302 295 288 275 269 269 268 266 263 265 270 271 272 268 267 270 272 273 276 279 280 281 284 287 287 287 287 283 275 274 272 270 267 267 269 269 270 269 269 271 273 271 268 263 258 257 255 251 249
276 278 281 290 297 302 294 288 282 268 265 261 266 271 267 265 276 283 285 284 282 283 282 282 284 285 285 287 289 289 288 285 280 275 270 270 271 271 271 270 270 269 268 266 268 272 269 264 260 258 258 259 259 255
274 275 273 280 286 290 279 279 273 273 269 264 263 263 269 275 271 274 273 275 279 283 285 286 288 288 287 287 287 286 284 281 279 274 271 271 272 272 272 272 272 272 272 271 265 263 261 258 256 256 256 256 257 259
271 273 271 271 276 278 274 269 272 278 281 274 275 274 276 277 277 278 280 281 284 286 288 289 290 289 288 288 287 285 281 278 277 275 274 274 275 273 273 273 278 276 271 268 267 262 260 257 255 256 256 257 260 260
268 269 269 264 267 267 273 273 270 274 281 283 280 278 281 282 282 283 285 288 291 290 291 291 290 289 287 285 284 281 276 277 278 276 277 278 279 278 277 282 275 264 266 271 272 269 266 266 263 259 260 261 260 260
268 266 266 265 260 264 267 270 272 273 277 280 280 282 283 285 287 290 291 293 293 295 295 294 293 293 291 290 287 282 278 277 276 275 273 273 274 278 278 288 286 288 280 271 269 266 265 264 261 256 252 255 255 256
263 261 261 263 259 261 266 268 271 274 277 280 284 286 288 288 290 294 296 299 300 299 298 299 298 295 293 290 287 285 283 282 280 279 278 276 276 276 279 284 288 286 289 283 273 270 268 264 266 262 255 249 248 254
266 261 266 255 257 261 265 267 271 274 278 283 286 285 285 291 296 301 303 304 302 302 307 309 311 303 302 297 294 291 290 287 285 283 280 280 282 278 279 280 283 286 290 288 276 270 270 265 259 260 252 249 251 254
267 263 266 251 255 250 263 266 269 273 282 281 281 285 294 299 302 302 301 301 307 314 313 302 310 314 306 301 296 294 292 290 289 288 283 283 287 289 283 285 281 289 290 291 280 270 263 259 253 252 257 256 258 256
287 270 262 249 250 254 252 263 271 273 273 276 282 293 299 298 298 299 303 310 312 311 310 308 310 308 306 304 305 304 301 295 286 280 277 281 284 284 289 291 291 295 290 288 291 281 270 264 263 264 262 267 266 261
290 266 260 267 271 263 268 266 264 262 266 278 286 291 293 293 296 301 307 311 309 307 304 305 309 314 311 313 312 307 307 302 289 287 279 279 284 285 277 286 290 304 294 304 295 291 280 270 265 265 266 267 259 257
282 258 250 250 262 257 251 248 249 259 268 277 280 279 280 295 295 306 310 310 306 304 308 305 300 312 317 313 313 306 311 303 299 299 289 284 282 274 270 278 279 296 293 295 301 293 278 270 270 271 263 260 249 246
268 252 244 242 237 237 227 235 250 254 265 268 264 274 291 287 293 298 301 305 309 305 299 300 307 319 316 323 320 313 317 301 294 297 267 294 299 293 285 287 290 309 310 312 313 310 304 284 288 288 266 238 232 237
281 271 264 254 226 210 229 236 243 253 253 236 261 286 293 285 290 297 302 305 307 312 319 320 316 319 311 317 322 320 323 313 292 303 280 277 288 295 295 288 294 317 311 315 330 331 324 320 306 271 204 196 214 218
267 266 246 221 208 222 223 233 242 240 225 244 277 291 286 284 292 297 303 306 304 307 308 305 309 321 318 315 321 317 322 313 302 301 300 275 290 287 285 290 307 333 321 332 349 356 357 350 8 129 159 183 202 214
273 260 222 202 219 221 226 235 229 222 234 263 283 289 285 291 298 305 306 309 304 313 320 315 316 319 321 326 315 320 320 312 301 294 289 276 276 279 282 298 327 331 307 331 342 341 349 19 15 67 141 184 195 210
266 233 195 204 212 221 231 221 221 234 249 270 289 286 282 293 297 302 305 307 306 302 298 302 309 310 314 323 321 309 310 302 304 285 298 269 275 268 277 287 295 348 24 9 1 9 38 71 311 329 175 176 198 224
231 191 191 211 211 223 223 224 229 244 258 279 297 283 283 293 303 306 310 308 307 293 289 290 296 302 308 314 318 309 304 297 294 297 293 264 271 267 273 280 285 264 260 343 2 18 17 358 27 228 234 170 206 211
183 185 200 205 218 218 216 227 236 255 272 287 295 290 296 301 305 305 309 317 300 299 296 297 301 307 306 310 318 316 308 294 286 284 288 288 280 279 268 268 266 277 275 260 276 305 30 11 19 79 168 215 215 217
180 187 194 205 211 218 227 241 251 265 274 283 281 297 305 309 310 312 312 324 315 297 293 297 303 314 315 312 319 317 312 302 295 289 281 278 277 274 269 258 258 257 264 268 272 278 279 285 262 340 332 315 275 151
176 179 179 185 201 227 239 244 236 254 281 295 305 307 315 316 314 309 304 326 328 314 315 323 303 310 312 306 311 306 310 313 304 291 279 278 278 263 258 258 258 255 253 258 266 274 281 276 269 243 220 238 262 272
166 166 172 176 180 195 208 226 264 303 321 309 301 322 356 6 356 326 320 322 319 312 306 307 311 313 314 308 304 298 305 314 304 286 281 287 294 262 245 249 253 253 253 253 253 256 260 262 260 252 250 251 243 234
160 165 163 165 161 159 167 249 303 300 327 349 349 344 318 340 345 343 328 319 317 317 321 321 316 320 320 307 305 315 324 333 330 314 291 274 271 260 240 239 243 250 256 259 260 263 266 267 265 261 253 246 243 246
164 165 171 172 171 170 189 4 355 327 1 3 351 336 331 342 343 339 337 346 351 353 351 1 3 352 359 11 8 0 354 359 5 3 2 1 326 284 259 237 229 242 259 263 261 260 262 264 264 264 263 261 259 254
157 163 168 179 187 185 190 283 352 317 349 353 351 5 26 27 10 355 351 1 6 6 2 0 356 14 13 18 35 43 34 17 18 12 7 7 7 355 348 334 298 293 287 283 278 273 274 275 272 269 267 264 261 258
188 192 195 199 200 205 223 254 247 294 337 339 343 8 330 329 348 0 5 15 25 24 24 23 33 35 40 47 53 57 50 43 43 47 49 47 42 41 43 51 45 22 341 309 291 281 278 277 278 284 285 282 278 273
199 203 209 219 234 248 262 293 321 264 324 318 343 347 6 19 9 14 24 27 32 39 44 43 49 58 59 59 58 55 54 51 52 53 51 50 48 49 49 52 56 53 56 49 37 21 352 324 314 310 305 297 287 279
193 212 230 244 244 241 252 260 255 284 304 315 342 340 335 359 13 18 27 32 33 43 51 49 46 52 54 51 51 54 58 55 49 44 46 49 53 56 57 57 53 48 47 45 38 32 25 18 8 352 331 318 311 297
226 248 259 256 254 249 254 262 264 285 315 302 282 327 17 19 19 20 23 34 31 37 52 54 48 45 41 46 48 52 56 62 61 54 53 56 58 59 59 60 58 51 48 53 52 46 39 35 29 21 19 15 20 39
230 257 259 259 260 262 245 246 262 278 294 286 250 333 16 26 34 32 23 28 40 31 40 52 56 53 45 41 46 47 48 56 61 58 52 48 51 51 52 53 53 50 45 44 47 48 47 44 42 38 38 42 46 47
262 272 278 307 309 258 254 257 257 256 265 222 217 270 14 24 37 39 33 26 30 35 25 35 49 43 38 39 40 41 35 36 41 43 41 33 34 40 41 45 47 46 44 44 41 39 40 40 41 42 41 41 43 48
95 31 319 312 12 19 270 223 221 217 220 216 227 238 259 10 30 35 30 24 23 28 21 19 33 34 28 28 33 39 35 36 35 34 29 22 23 29 33 36 35 32 36 40 37 34 35 36 38 40 41 41 44 46